OPS 4682 DEB, 38449

Orbit data source: Space-Track

OPS 4682 DEB, 38449 is space debris in LEO originally from a launch on Sat, 03 Apr 1965 UTC launched from the Air Force Western Test Range (AFWTR). Debris objects in space refer to the collection of defunct objects orbiting the Earth. Examples of debris include non-operational satellites, rocket bodies, and fragments generated from explosions, collisions, or faulty payload assembly.

Loading next visibility...
Identifier
38449, 1965-027FE
Orbit
LEO
Country
Flag of USUS
Related business
Manufacturer
Unknown
Mission
Spacecraft
Bus & Motor
Unknown
Mass
Unknown
Launch date (UTC)
1965-04-03 (61 years ago)
Launch vehicle
Unknown
Launch site
Air Force Western Test Range (AFWTR)
Object type
Payload
Rocket body
Debris
Shape & HBR
Unknown shape, 0.1 m
Radar Cross Section
Small (<0.1 m²)

Expand to show TLE details & history
Last TLE update: 2 days ago

TLE from 2 days ago
0 OPS 4682 DEB
1 38449U 65027FE  25301.60029590  .00000050  00000-0  15103-3 0  9998
2 38449  90.2460   5.7995 0032107  59.7953 300.6339 12.95187426557654
Epoch: 2025-10-28T14:24Z
TLE epoch observation values (Epoch: 2025-10-28T14:24:25.565Z)
Latitude
-0.00009°
Longitude
112.50752°
Altitude
1,271.403 km
Speed
7.226 km/s
True Right ascension
00h 23m 11s
True Declination
0° 00' 00"
Sunlit
Object was in full shadow at epoch
Visualization orbit readout
Latitude
Unknown
Longitude
Unknown
Altitude
Unknown
Speed
Unknown
Apparent Right ascension
Unknown
Apparent Declination
Unknown
Sunlit
N/A
Visualization observer readout
Local Sidereal Time
22:27:20
Azimuth
Unknown
Elevation
Unknown
Doppler factor
Unknown
Orbital elements
Apogee altitude
1,302.717 km
Perigee altitude
1,253.553 km
Semi-major axis
7,656.272 km
Eccentricity
0.00321
Inclination
90.246°
RAAN
5.7995°
Arg. of periapsis
59.7953°
True anomaly
300.31668°
Mean anomaly
300.6339°
Eccentric anomaly
300.47535°
Mean motion
3.23979 °/min
Orbital period
111.12 mins
BSTAR
0.00015103
Loading maneuver chart data...
Computing Atmospheric mass density...
Loading historical data...
Loading historical data...
Loading historical data...
Loading historical data...
Loading historical data...
Loading historical data...
Loading historical data...

Documentation

Showing up to 5 results
|